1336176025085,18.8574
1336176085085,18.8752
1336176145085,18.8569
1336176205085,18.8715
1336176265085,18.9286
1336176325085,18.9031
1336176385085,18.8407
1336176445085,18.8385
1336176505085,18.8489
1336176565085,18.8849
1336176625085,18.8824
1336176685085,18.9025
1336176745085,18.8214
1336176805085,18.8224
1336176865085,18.8467
1336176925085,18.8448
1336176985085,18.8197
1336177045085,18.8819
1336177105085,18.8386
1336177165085,18.8443
1336177225085,18.8708
1336177285085,18.8553
1336177345085,18.9629
1336177405085,18.8710
1336177465085,18.9190
1336177525085,18.9448
1336177585085,18.9814
1336177645085,19.0063
1336177705085,18.8949
1336177765085,18.9096
1336177825085,18.9307
1336177885085,18.9242
1336177945085,18.9218
1336178005085,18.9575
1336178065085,18.9545
1336178125085,18.9185
1336178185085,18.9359
1336178245085,18.9213
1336178305085,18.8891
1336178365085,18.8558
1336178425085,18.8759
1336178485085,18.8660
1336178545085,18.8658
1336178605085,18.8404
1336178665085,18.8763
1336178725085,18.8612
1336178785085,18.9166
1336178845085,18.8609
1336178905085,18.8937
1336178965085,18.8321
1336179025085,18.8194
1336179085085,18.8154
1336179145085,18.8127
1336179205085,18.7815
1336179265085,18.7667
1336179325085,18.7889
1336179385085,18.7536
1336179445085,18.7942
1336179505085,18.8417
1336179565085,18.7899
1336179625096,18.8278
1336179685096,18.8430
1336179745096,18.9057
1336179805097,18.8747
1336179865096,18.9165
1336179925096,18.7739
1336179985096,18.8554
1336180045096,18.8719
1336180105097,18.8168
1336180165097,18.8074
1336180225097,18.8321
1336180285097,18.8452
1336180345097,18.8322
1336180405097,18.8108
1336180465097,18.8548
1336180525097,18.8481
1336180585096,18.8458
1336180645096,18.9022
1336180705096,18.8111
1336180765096,18.8564
1336180825096,18.8579
1336180885096,18.8418
1336180945096,18.8369
1336181005096,18.8322
1336181065096,18.8637
1336181125097,18.8385
1336181185097,18.8710
1336181245096,18.8436
1336181305096,18.7597
1336181365096,18.7988
1336181425096,18.7717
1336181485097,18.8184
1336181545097,18.7738
1336181605097,18.7831
1336181665097,18.8060
1336181725097,18.7387
1336181785097,18.8239
1336181845097,18.7688
1336181905096,18.7944
1336181965096,18.8003
1336182025096,18.8360
1336182085096,18.8867
1336182145096,18.8006
1336182205096,18.8320
1336182265096,18.8130
1336182325096,18.8709
1336182385096,18.8642
1336182445096,18.7630
1336182505097,18.8261
1336182565096,18.7954
1336182625096,18.8264
1336182685096,18.8351
1336182745096,18.8474
1336182805097,18.8927
1336182865097,18.8166
1336182925097,18.8825
1336182985097,18.7542
1336183045097,18.7872
1336183105097,18.7670
1336183165097,18.8738
1336183225107,18.8139
1336183285107,18.7834
1336183345107,18.7678
1336183405107,18.7793
1336183465107,18.7810
1336183525107,18.8150
1336183585107,18.8463
1336183645107,18.8088
1336183705107,18.7990
1336183765107,18.8699
1336183825107,18.7893
1336183885107,18.8137
1336183945107,18.8857
1336184005107,18.8032
1336184065107,18.8125
1336184125107,18.8293
1336184185107,18.8698
1336184245107,18.8673
1336184305107,18.8203
1336184365107,18.8793
1336184425107,18.8860
1336184485107,18.9041
1336184545107,18.8669
1336184605107,18.9126
1336184665107,18.8543
1336184725107,18.8068
1336184785107,18.7838
1336184845107,18.7737
1336184905107,18.8892
1336184965107,18.7956
1336185025107,18.8070
1336185085107,18.7463
1336185145107,18.8080
1336185205107,18.7866
1336185265107,18.8250
1336185325107,19.0298
1336185385107,18.8558
1336185445107,18.7798
1336185505107,18.7852
1336185565107,18.7894
1336185625107,18.7575
1336185685107,18.7519
1336185745107,18.7833
1336185805107,18.7662
1336185865107,18.7832
1336185925107,18.7397
1336185985107,18.7745
1336186045107,18.7637
1336186105107,18.7295
1336186165107,18.7192
1336186225107,18.8222
1336186285107,18.7936
1336186345107,18.7752
1336186405107,18.7238
1336186465107,18.7912
1336186525107,18.7928
1336186585107,18.7471
1336186645107,18.7881
1336186705107,18.7551
1336186765107,18.7804
1336186825118,18.7713
1336186885118,18.7232
1336186945118,18.7927
1336187005118,18.8195
1336187065118,18.7734
1336187125118,18.8820
1336187185118,18.9390
1336187245118,18.8677
1336187305118,18.9158
1336187365118,18.8918
1336187425118,18.9115
1336187485118,18.9375
1336187545118,18.9089
1336187605118,18.9262
1336187665118,18.8978
1336187725118,18.9476
1336187785118,18.8614
1336187845118,18.8878
1336187905118,18.7868
1336187965118,18.7973
1336188025118,18.8001
1336188085118,18.8611
1336188145118,18.8345
1336188205118,18.8162
1336188265118,18.8144
1336188325118,18.7779
1336188385118,18.8052
1336188445118,18.7971
1336188505118,18.8414
1336188565118,18.8264
1336188625118,18.8226
1336188685118,18.8256
1336188745118,18.7519
1336188805118,18.8101
1336188865118,18.8206
1336188925118,18.8254
1336188985118,18.8213
1336189045118,18.8354
1336189105118,18.8574
1336189165118,18.8394
1336189225118,18.7921
1336189285118,18.7779
1336189345118,18.8187
1336189405118,18.8231
1336189465118,18.7768
1336189525118,18.8218
1336189585118,18.8347
1336189645118,18.7990
1336189705118,18.7889
1336189765118,18.8790
1336189825118,18.8192
1336189885118,18.8594
1336189945118,18.8344
1336190005118,18.8646
1336190065118,18.8123
1336190125118,18.7953
1336190185118,18.8336
1336190245118,18.8145
1336190305118,18.8544
1336190365118,18.8318
1336190425128,18.8914
1336190485128,18.7788
1336190545128,18.8787
1336190605128,18.8827
1336190665128,18.8703
1336190725128,18.8609
1336190785128,18.8852
1336190845128,18.8797
1336190905128,18.7805
1336190965128,18.8747
1336191025128,18.8714
1336191085128,18.7938
1336191145128,18.8828
1336191205128,18.8061
1336191265128,18.8074
1336191325128,18.7816
1336191385128,18.8003
1336191445128,18.7968
1336191505128,18.8317
1336191565128,18.8244
1336191625128,18.8020
1336191685128,18.8234
1336191745128,18.8576
1336191805128,18.8488
1336191865128,18.8300
1336191925128,18.8476
1336191985128,18.8622
1336192045128,18.7954
1336192105128,18.8573
1336192165128,18.8919
1336192225128,18.8316
1336192285128,18.8335
1336192345128,18.8349
1336192405128,18.8492
1336192465128,18.9054
1336192525128,18.8005
1336192585128,18.8625
1336192645128,18.8177
1336192705128,18.7927
1336192765128,18.7984
1336192825128,18.8058
1336192885128,18.8037
1336192945128,18.7956
1336193005128,18.8156
1336193065128,18.8479
1336193125128,18.8228
1336193185128,18.8514
1336193245128,18.8823
1336193305128,18.7862
1336193365128,18.8813
1336193425128,18.8059
1336193485128,18.8185
1336193545128,18.8169
1336193605128,18.8036
1336193665128,18.8335
1336193725128,18.8347
1336193785128,18.7997
1336193845128,18.7401
1336193905128,18.8111
1336193965128,18.7721
1336194025139,18.8025
1336194085139,18.8435
1336194145139,18.7895
1336194205139,18.7837
1336194265139,18.8044
1336194325139,18.7304
1336194385139,18.7377
1336194445139,18.7240
1336194505139,18.7787
1336194565139,18.6833
1336194625139,18.8041
1336194685139,18.7762
1336194745139,18.7460
1336194805139,18.7589
1336194865139,18.7968
1336194925139,18.7465
1336194985139,18.7684
1336195045139,18.7763
1336195105139,18.7431
1336195165139,18.7733
1336195225139,18.7810
1336195285139,18.8634
1336195345139,18.8258
1336195405139,18.8296
1336195465139,18.8148
1336195525139,18.8646
1336195585139,18.8224
1336195645139,18.8005
1336195705139,18.7876
1336195765139,18.8072
1336195825139,18.8385
1336195885139,18.8039
1336195945139,18.7857
1336196005139,18.7648
1336196065139,18.7876
1336196125139,18.7741
1336196185139,18.8133
1336196245139,18.7808
1336196305139,18.7992
1336196365139,18.7220
1336196425139,18.7685
1336196485139,18.6925
1336196545139,18.7113
1336196605139,18.7299
1336196665139,18.7763
1336196725139,18.7156
1336196785139,18.7670
1336196845139,18.7557
1336196905139,18.7633
1336196965139,18.7468
1336197025139,18.7642
1336197085139,18.7658
1336197145139,18.7703
1336197205139,18.7576
1336197265139,18.7446
1336197325139,18.7064
1336197385139,18.8426
1336197445139,18.8418
1336197505139,18.9114
1336197565139,18.8721
1336197625149,18.9118
1336197685149,18.9430
1336197745149,18.9939
1336197805149,19.0192
1336197865149,18.9886
1336197925149,19.0987
1336197985149,19.0474
1336198045149,19.0240
1336198105149,19.0493
1336198165149,19.0161
1336198225149,19.0057
1336198285149,19.0320
1336198345149,19.0044
1336198405149,19.0114
1336198465149,19.0592
1336198525149,19.0491
1336198585149,19.0051
1336198645149,19.0264
1336198705149,19.0618
1336198765149,19.0769
1336198825149,19.0871
1336198885149,19.1300
1336198945149,19.1798
1336199005149,19.2166
1336199065149,19.1722
1336199125149,19.1987
1336199185149,19.1950
1336199245149,19.1559
1336199305149,19.2336
1336199365149,19.2502
1336199425149,19.2649
1336199485149,19.2012
1336199545149,19.2282
1336199605149,19.2590
1336199665149,19.2753
1336199725149,19.3029
1336199785149,19.2873
1336199845149,19.2495
1336199905149,19.1892
1336199965149,19.1483
1336200025149,19.1611
1336200085149,19.1606
1336200145149,19.1172
1336200205149,19.1402
1336200265149,19.1583
1336200325149,19.1566
1336200385149,19.1090
1336200445149,19.1313
1336200505149,19.1075
1336200565149,19.0687
1336200625149,19.0370
1336200685149,19.0437
1336200745149,19.0005
1336200805149,19.0789
1336200865149,19.0501
1336200925149,19.0449
1336200985149,19.0749
1336201045149,19.0768
1336201105149,19.0273
1336201165149,19.0600
1336201225159,19.0043
1336201285159,19.0259
1336201345159,19.0533
1336201405159,19.0208
1336201465159,19.0133
1336201525159,19.0159
1336201585159,19.0428
1336201645159,18.9736
1336201705159,19.0546
1336201765159,18.9772
1336201825159,19.0059
1336201885159,19.0378
1336201945159,19.0959
1336202005159,19.0716
1336202065159,19.0105
1336202125159,19.0028
1336202185159,19.0514
1336202245159,19.0751
1336202305159,18.9922
1336202365159,19.0054
1336202425159,19.0222
1336202485159,18.9575
1336202545159,18.9903
1336202605159,18.9220
1336202665159,18.9608
1336202725159,18.9952
1336202785159,18.9540
1336202845159,18.9881
1336202905159,19.0191
1336202965159,18.9661
1336203025159,18.9436
1336203085159,18.9771
1336203145159,18.9092
1336203205159,18.8929
1336203265159,18.9590
1336203325159,18.9329
1336203385159,18.9024
1336203445159,18.9660
1336203505159,18.8821
1336203565159,18.9740
1336203625159,18.8842
1336203685159,18.9011
1336203745159,18.9176
1336203805159,18.9402
1336203865159,18.8556
1336203925159,18.9393
1336203985159,18.8910
1336204045159,18.9041
1336204105159,18.9870
1336204165159,18.9333
1336204225159,18.8930
1336204285159,18.8782
1336204345159,18.9304
1336204405159,18.9054
1336204465159,18.9261
1336204525159,18.8993
1336204585159,18.9391
1336204645159,18.9633
1336204705159,18.9488
1336204765159,18.9640
1336204825169,18.8931
1336204885169,18.9443
1336204945169,18.9676
1336205005169,19.0337
1336205065169,18.9596
1336205125169,19.0109
1336205185169,18.9619
1336205245169,18.9609
1336205305169,18.9775
1336205365169,18.9461
1336205425169,18.9169
1336205485169,18.8992
1336205545169,18.8808
1336205605169,18.9257
1336205665169,18.8673
1336205725169,18.8358
1336205785169,18.8747
1336205845169,18.8861
1336205905169,18.9055
1336205965169,18.8787
1336206025169,18.8682
1336206085169,18.8763
1336206145169,18.8708
1336206205169,18.9020
1336206265169,18.8658
1336206325169,18.8442
1336206385169,18.8682
1336206445169,18.8457
1336206505169,18.7652
1336206565169,18.8378
1336206625169,18.8092
1336206685169,18.8391
1336206745169,18.8121
1336206805169,18.8361
1336206865169,18.8278
1336206925169,18.8436
1336206985169,18.8575
1336207045169,18.8729
1336207105169,18.8451
1336207165169,18.7886
1336207225169,18.7955
1336207285169,18.7810
1336207345169,18.7896
1336207405169,18.7841
1336207465169,18.8254
1336207525169,18.7404
1336207585169,18.8400
1336207645169,18.7555
1336207705169,18.7304
1336207765169,18.7445
1336207825169,18.7436
1336207885169,18.7496
1336207945169,18.7423
1336208005169,18.7916
1336208065169,18.7435
1336208125169,18.8014
1336208185169,18.7307
1336208245169,18.7845
1336208305169,18.7222
1336208365169,18.7497
1336208425179,18.7464
1336208485179,18.7048
1336208545179,18.7048
1336208605179,18.6464
1336208665179,18.7066
1336208725179,18.6578
1336208785179,18.6373
1336208845179,18.6776
1336208905179,18.6612
1336208965179,18.6573
1336209025179,18.7529
1336209085179,18.6752
1336209145179,18.6409
1336209205179,18.6755
1336209265179,18.6521
1336209325179,18.6228
1336209385179,18.6701
1336209445179,18.5814
1336209505179,18.6492
1336209565179,18.6332
1336209625179,18.6569
1336209685179,18.6267
1336209745179,18.6098
1336209805179,18.6933
1336209865179,18.6307
1336209925179,18.6193
1336209985179,18.6200
1336210045179,18.6105
1336210105179,18.6058
1336210165179,18.6765
1336210225179,18.6685
1336210285179,18.6933
1336210345179,18.7632
1336210405179,19.0534
1336210465179,19.3665
1336210525179,19.1571
1336210585179,18.9564
1336210645179,19.0122
1336210705179,19.0823
1336210765179,19.0668
1336210825179,19.0711
1336210885179,19.0576
1336210945179,18.9874
1336211005179,18.9201
1336211065179,18.9071
1336211125179,18.9319
1336211185179,18.8244
1336211245179,18.8725
1336211305179,18.8205
1336211365179,18.7482
1336211425179,18.7656
1336211485179,18.7502
1336211545179,18.7243
1336211605179,18.6847
1336211665179,18.7000
1336211725179,18.6779
1336211785179,18.6459
1336211845179,18.6637
1336211905179,18.6411
1336211965179,18.6766
1336212025189,18.6225
1336212085189,18.5522
1336212145189,18.6089
1336212205189,18.6138
1336212265189,18.6148
1336212325189,18.6287
1336212385189,18.6410
1336212445189,18.6398
1336212505189,18.6306
1336212565189,18.6659
1336212625189,18.6351
1336212685189,18.6458
1336212745189,18.6123
1336212805189,18.6133
1336212865189,18.6364
1336212925189,18.6676
1336212985189,18.5855
1336213045189,18.6196
1336213105189,18.6273
1336213165189,18.6295
1336213225189,18.7060
1336213285189,18.7413
1336213345189,18.7104
1336213405189,18.7393
1336213465189,18.6706
1336213525189,18.6195
1336213585189,18.5972
1336213645189,18.5642
1336213705189,18.5491
1336213765189,18.6064
1336213825189,18.5656
1336213885189,18.5790
1336213945189,18.6341
1336214005189,18.5880
1336214065189,18.6200
1336214125189,18.5974
1336214185189,18.5879
1336214245189,18.5612
1336214305189,18.6180
1336214365189,18.6000
1336214425189,18.6580
1336214485189,18.6128
1336214545189,18.6335
1336214605189,18.5767
1336214665189,18.6691
1336214725189,18.6365
1336214785189,18.6325
1336214845189,18.6338
1336214905189,18.5981
1336214965189,18.6487
1336215025189,18.5754
1336215085189,18.5199
1336215145189,18.5341
1336215205189,18.5999
1336215265189,18.5758
1336215325189,18.6085
1336215385189,18.6017
1336215445189,18.5714
1336215505189,18.6495
1336215565189,18.6241
1336215625199,18.6288
1336215685199,18.6196
1336215745199,18.5734
1336215805199,18.5792
1336215865199,18.5983
1336215925199,18.5793
1336215985199,18.5970
1336216045199,18.5866
1336216105199,18.5863
1336216165199,18.6606
1336216225199,18.5665
1336216285199,18.5412
1336216825199,18.6244
1336216885199,18.4647
1336216945199,18.5937
1336217005199,18.5721
1336217065199,18.5869
1336217125199,18.5695
1336217185199,18.5604
1336217245199,18.5781
1336217305199,18.4995
1336217365199,18.5145
1336217425199,18.5049
1336217485199,18.5290
1336217545199,18.5505
1336217605199,18.5879
1336217665199,18.6458
1336217725199,18.7041
1336217785199,18.6313
1336217845199,18.6719
1336217905199,18.6050
1336217965199,18.6295
1336218025199,18.6022
1336218085199,18.5743
1336218145199,18.5901
1336218205199,18.5860
1336218265199,18.5607
1336218325199,18.5756
1336218385199,18.5519
1336218445199,18.6302
1336218505199,18.6424
1336218565199,18.6076
1336218625199,18.5700
1336218685199,18.6034
1336218745199,18.6714
1336218805199,18.6135
1336218865199,18.6544
1336218925199,18.5705
1336218985199,18.5928
1336219045199,18.5670
1336219105199,18.6253
1336219165199,18.6441
1336219225209,18.6042
1336219285209,18.5713
1336219345209,18.6068
1336219405209,18.5968
1336219465209,18.5377
1336219525209,18.5909
1336219585209,18.5414
1336219645209,18.5529
1336219705209,18.6017
1336219765209,18.5901
1336219825209,18.6267
1336219885209,18.5916
1336219945209,18.5662
1336220005209,18.5865
1336220065209,18.5832
1336220125209,18.5799
1336220185209,18.5685
1336220245209,18.5757
1336220305209,18.6083
1336220365209,18.5702
1336220425209,18.5818
1336220485209,18.6405
1336220545209,18.6276
1336220605209,18.5995
1336220665209,18.5960
1336220725209,18.6279
1336220785209,18.5988
1336220845209,18.6095
1336220905209,18.6222
1336220965209,18.5556
1336221025209,18.6042
1336221085209,18.5626
1336221145209,18.5869
1336221205209,18.6305
1336221265209,18.6362
1336221325209,18.6173
1336221385209,18.5876
1336221445209,18.5802
1336221505209,18.5933
1336221565209,18.5705
1336221625209,18.6493
1336221685209,18.5503
1336221745209,18.6301
1336221805209,18.5495
1336221865209,18.6040
1336221925209,18.5717
1336221985209,18.5734
1336222045209,18.6059
1336222105209,18.6353
1336222165209,18.6071
1336222225209,18.6032
1336222285209,18.6073
1336222345209,18.6020
1336222405209,18.5687
1336222465209,18.6736
1336222525209,18.5420
1336222585209,18.6721
1336222645209,18.6259
1336222705209,18.5942
1336222765209,18.6367
1336222825219,18.6170
1336222885219,18.5893
1336222945219,18.5896
1336223005219,18.6157
1336223065219,18.5747
1336223125219,18.6380
1336223185219,18.6173
1336223245219,18.6161
1336223305219,18.6031
1336223365219,18.6286
1336223425219,18.6884
1336223485219,18.6559
1336223545219,18.6144
1336223605219,18.6508
1336223665219,18.5845
1336223725219,18.6017
1336223785219,18.6467
1336223845219,18.6633
1336223905219,18.7026
1336223965219,18.6666
1336224025219,18.6729
1336224085219,18.9647
1336224145219,19.1696
1336224205219,19.3038
1336224265219,19.1586
1336224325219,19.2446
1336224385219,18.9948
1336224445219,19.0013
1336224505219,18.8792
1336224565219,18.9498
1336224625219,18.9653
1336224685219,18.8755
1336224745219,18.8164
1336224805219,18.8325
1336224865219,18.7535
1336224925219,18.7846
1336224985219,18.7190
1336225045219,18.7621
1336225105219,18.6894
1336225165219,18.6782
1336225225219,18.6694
1336225285219,18.8313
1336225345219,18.6433
1336225405219,18.6907
1336225465219,18.6524
1336225525219,18.6633
1336225585219,18.6368
1336225645219,18.6938
1336225705219,18.6398
1336225765219,18.6433
1336225825219,18.6596
1336225885219,18.6582
1336225945219,18.5992
1336226005219,18.6249
1336226065219,18.6263
1336226125219,18.6195
1336226185219,18.6347
1336226245219,18.6134
1336226305219,18.6577
1336226365219,18.6151
1336226425229,18.6267
1336226485229,18.6338
1336226545229,18.6097
1336226605229,18.6223
1336226665229,18.5897
1336226725229,18.6100
1336226785229,18.6000
1336226845229,18.5936
1336226905229,18.6040
1336226965229,18.6352
1336227025229,18.6728
1336227085229,18.6639
1336227145229,18.6124
1336227205229,18.6632
1336227265229,18.6387
1336227325229,18.6797
1336227385229,18.6429
1336227445229,18.6525
1336227505229,18.6914
1336227565229,18.6292
1336227625229,18.6562
1336227685229,18.6429
1336227745229,18.5833
1336227805229,18.6393
1336227865229,18.6220
1336227925229,18.6495
1336227985229,18.6242
1336228045229,18.5894
1336228105229,18.6553
1336228165229,18.6486
1336228225229,18.6865
1336228285229,18.6820
1336228345229,18.6579
1336228405229,18.6682
1336228465229,18.6531
1336228525229,18.6922
1336228585229,18.6519
1336228645229,18.6185
1336228705229,18.6707
1336228765229,18.6839
1336228825229,18.7112
1336228885229,18.6711
1336228945229,18.6413
1336229005229,18.6394
1336229065229,18.6545
1336229125229,18.6060
1336229185229,18.5869
1336229245229,18.6139
1336229305229,18.5734
1336229365229,18.5528
1336229425229,18.6380
1336229485229,18.6246
1336229545229,18.6233
1336229605229,18.6018
1336229665229,18.6327
1336229725229,18.6446
1336229785229,18.6275
1336229845229,18.6683
1336229905229,18.6327
1336229965229,18.5693
1336230025239,18.5781
1336230085239,18.5409
1336230145239,18.5463
1336230205239,18.5767
1336230265239,18.6218
1336230325239,18.5147
1336230385239,18.5807
1336230445239,18.6387
1336230505239,18.6034
1336230565239,18.5830
1336230625239,18.6273
1336230685239,18.6037
1336230745239,18.5596
1336230805239,18.6009
1336230865239,18.6777
1336230925239,18.6022
1336230985239,18.6487
1336231045239,18.6054
1336231105239,18.5985
1336231165239,18.6114
1336231225239,18.6266
1336231285239,18.6187
1336231345239,18.6010
1336231405239,18.6473
1336231465239,18.6362
1336231525239,18.5614
1336231585239,18.5627
1336231645239,18.5971
1336231705239,18.5188
1336231765239,18.5525
1336231825239,18.5778
1336231885239,18.6288
1336231945239,18.6156
1336232005239,18.6061
1336232065239,18.5737
1336232125239,18.6127
1336232185239,18.5730
1336232245239,18.6573
1336232305239,18.6237
1336232365239,18.6476
1336232425239,18.5881
1336232485239,18.6520
1336232545239,18.6795
1336232605239,18.6841
1336232665239,18.7226
1336232725239,18.7557
1336232785239,18.7909
1336232845239,18.8095
1336232905239,18.7434
1336232965239,18.7325
1336233025239,18.6887
1336233085239,18.7754
1336233145239,18.7491
1336233205239,18.7758
1336233265239,18.7138
1336233325239,18.7536
1336233385239,18.7265
1336233445239,18.7750
1336233505239,18.7425
1336233565239,18.7164
1336233625249,18.7438
1336233685249,18.6969
1336233745249,18.7564
1336233805249,18.7256
1336233865249,18.6327
1336233925249,18.7039
1336233985249,18.6852
1336234045249,18.6676
1336234105249,18.6246
1336234165249,18.6417
1336234225249,18.6018
1336234285249,18.6043
1336234345249,18.6334
1336234405249,18.6352
1336234465249,18.6187
1336234525249,18.6017
1336234585249,18.6223
1336234645249,18.6550
1336234705249,18.6286
1336234765249,18.6207
1336234825249,18.6160
1336234885249,18.6509
1336234945249,18.6081
1336235005249,18.6150
1336235065249,18.6754
1336235125249,18.6294
1336235185249,18.6714
1336235245249,18.6318
1336235305249,18.5926
1336235365249,18.6345
1336235425249,18.6059
1336235485249,18.6563
1336235545249,18.6029
1336235605249,18.6595
1336235665249,18.6322
1336235725249,18.5931
1336235785249,18.6132
1336235845249,18.5905
1336235905249,18.6116
1336235965249,18.5868
1336236025249,18.6561
1336236085249,18.6206
1336236145249,18.6126
1336236205249,18.5986
1336236265249,18.6624
1336236325249,18.6518
1336236385249,18.6545
1336236445249,18.6938
1336236505249,18.6281
1336236565249,18.6081
1336236625249,18.5949
1336236685249,18.5867
1336236745249,18.5737
1336236805249,18.5841
1336236865249,18.5700
1336236925249,18.5903
1336236985249,18.5595
1336237045249,18.5797
1336237105249,18.6440
1336237165249,18.6354
1336237225259,18.5975
1336237285259,18.6192
1336237345259,18.6809
1336237405259,18.6112
1336237465259,18.6256
1336237525259,18.6392
1336237585259,18.5927
1336237645259,18.5967
1336237705259,18.6124
1336237765259,18.6170
1336237825259,18.6580
1336237885259,18.5608
1336237945259,18.6032
1336238005259,18.6099
1336238065259,18.5926
1336238125259,18.6404
1336238185259,18.6263
1336238245259,18.5982
1336238305259,18.6164
1336238365259,18.6381
1336238425259,18.6473
1336238485259,18.6768
1336238545259,18.6319
1336238605259,18.6127
1336238665259,18.5373
1336238725259,18.6528
1336238785259,18.6248
1336238845259,18.6073
1336238905259,18.6333
1336238965259,18.6836
1336239025259,18.6796
1336239085259,18.7221
1336239145259,18.7600
1336239205259,18.7651
1336239265259,18.9425
1336239325259,18.9192
1336239385259,19.0002
1336239445259,19.0803
1336239505259,19.0938
1336239565259,19.0925
1336239625259,19.1197
1336239685259,19.0878
1336239745259,19.1169
1336239805259,19.1151
1336239865259,19.0408
1336239925259,19.0054
1336239985259,19.0331
1336240045259,18.9973
1336240105259,19.0264
1336240165259,18.9872
1336240225259,18.9662
1336240285259,18.9138
1336240345259,18.9577
1336240405259,19.1043
1336240465259,19.1273
1336240525259,19.1009
1336240585259,19.1351
1336240645259,19.2058
1336240705259,19.5794
1336240765259,19.4683
1336240825269,19.2828
1336240885269,19.3368
1336240945269,19.2223
1336241005269,19.1919
1336241065269,19.1065
1336241125269,19.1001
1336241185269,19.0477
1336241245269,19.1126
1336241305269,19.0403
1336241365269,19.0516
1336241425269,19.0175
1336241485269,18.9609
1336241545269,18.9361
1336241605269,18.9903
1336241665269,18.9690
1336241725269,18.9500
1336241785269,18.9203
1336241845269,18.9266